Location: Ajisawe
(8.4333°N, 4.3833°E)
Time: 23:32:41
(UTC+00:00)

Vanguard 1 Rocket - Pass Details

Date: 27 April 2021
Orbit: 652 x 4224 km, 34.3° (Epoch: 10 May)

Event Time Altitude Azimuth Distance (km) Brightness Sun altitude
Rises 21:18:27 0° 256° (WSW) 4,186 11.2 -48.3°
Reaches altitude 10° 21:22:25 10° 234° (SW) 3,726 10.6 -49.1°
Enters shadow 21:23:26 12° 228° (SW) 3,692 10.5 -49.3°
